Location: Saint-Restitut
(44.3351°N, 4.7915°E)
Time: 01:27:00
(UTC+00:00)

Cosmos 1328 - Pass Details

Date: 03 February 2023
Orbit: 518 x 543 km, 82.5° (Epoch: 27 March)

Event Time Altitude Azimuth Distance (km) Brightness Sun altitude
Rises 17:47:06 0° 196° (SSW) 2,698 7.8 -10.1°
Reaches altitude 10° 17:49:17 10° 200° (SSW) 1,807 6.9 -10.5°
Maximum altitude 17:53:12 58° 281° (W) 635 4.5 -11.2°
Drops below altitude 10° 17:57:08 10° 1° (N) 1,808 6.3 -11.8°
Sets 17:59:19 0° 5° (N) 2,700 7.2 -12.2°
